Flag for Germany Weather past 2 weeks in Pirmasens, Rhineland-Palatinate, Germany

Now
57 °F

Partly sunny.


Feels Like: 55 °F
Forecast: 47 / 60 °F
Wind: 10 mph from Northwest

Location: Zweibrucken - Rheinland-Pfalz

Current Time: Aug 31, 2014 at 10:56:06 AM

Latest Report: Aug 31, 2014 at 10:20 AM


Visibility: N/A

Pressure: 30.01 "Hg

Humidity: 88%

Dew point: 54 °F

Location of PirmasensLocation

Historic Weather in Pirmasens — Graph

°F

Pirmasens temperature yesterday

Maximum temperature yesterday: 70 °F (at 4:20 PM)
Minimum temperature yesterday: 57 °F (at 3:20 AM)
Average temperature yesterday: 64 °F

Past Weeks' High & Low Weather Summary

 TemperatureHumidityPressure
High73 °F (Aug 29, 4:20 PM)100% (Aug 19, 5:20 AM)30.15 "Hg (Aug 19, 5:20 AM)
Low45 °F (Aug 21, 6:50 AM)43% (Aug 22, 1:50 PM)29.65 "Hg (Aug 26, 5:20 AM)
Average59 °F77%30.00 "Hg
* Reported Aug 16 9:20 AM — Aug 31 9:50 AM, Pirmasens, Weather by CustomWeather, © 2014

Note: Actual official high and low records may vary slightly from our data, if they occured in-between our weather recording intervals... More about our weather records

Advertising

Pirmasens weather history for previous 24 hours

 ConditionsComfort  
Time TempWeatherWind HumidityBarometerVisibility
9:50 AM
Aug 31
57 °FPartly sunny.9 mph94%30.01 "HgN/A
9:20 AM57 °FPartly sunny.10 mph94%30.01 "HgN/A
8:50 AM57 °FCloudy.7 mph94%30.01 "HgN/A
8:20 AM57 °FMostly cloudy.7 mph94%30.01 "HgN/A
3:50 AM59 °FLight rain. Partly cloudy.7 mph94%30.01 "HgN/A
3:20 AM61 °FPartly cloudy.5 mph88%30.01 "HgN/A
12:20 AM61 °FPassing clouds.5 mph83%30.07 "HgN/A
11:50 PM
Aug 30
61 °FMostly cloudy.3 mph83%30.07 "HgN/A
8:20 PM64 °FSunny.3 mph73%30.07 "Hg10 mi
7:50 PM64 °FSunny.5 mph73%30.07 "Hg10 mi
7:20 PM66 °FSunny.3 mph68%30.07 "Hg10 mi
6:50 PM66 °FSunny.5 mph68%30.07 "Hg10 mi
6:20 PM68 °FSunny.6 mph64%30.07 "Hg10 mi
5:50 PM68 °FBroken clouds.8 mph60%30.07 "HgN/A
5:20 PM70 °FPartly sunny.8 mph60%30.09 "HgN/A
4:50 PM68 °FBroken clouds.8 mph60%30.09 "HgN/A
4:20 PM70 °FPartly sunny.10 mph57%30.09 "HgN/A
3:50 PM68 °FPartly sunny.9 mph60%30.09 "HgN/A
3:20 PM68 °FPartly sunny.9 mph60%30.09 "HgN/A
2:50 PM68 °FPartly sunny.9 mph60%30.09 "HgN/A
2:20 PM68 °FPartly sunny.13 mph60%30.09 "HgN/A
1:50 PM68 °FScattered clouds.10 mph60%30.12 "HgN/A
1:20 PM68 °FPartly sunny.9 mph60%30.12 "HgN/A
12:50 PM64 °FBroken clouds.9 mph68%30.12 "HgN/A
12:20 PM68 °FBroken clouds.10 mph64%30.12 "HgN/A
11:50 AM66 °FPassing clouds.7 mph64%30.12 "HgN/A
11:20 AM66 °FPassing clouds.8 mph64%30.12 "HgN/A
10:50 AM64 °FPassing clouds.7 mph68%30.12 "HgN/A
10:20 AM64 °FSunny.6 mph78%30.12 "Hg10 mi
Weather by CustomWeather, © 2014

See weather overviewHow to use our weather pages